Location: Carnetin
(48.9010°N, 2.7059°E)
Time: 12:55:51
(UTC+00:00)

In-Cosmos 22 Rocket - Pass Details

Date: 24 October 2021
Orbit: 790 x 888 km, 81.2° (Epoch: 05 December)

Event Time Altitude Azimuth Distance (km) Brightness Sun altitude
Rises 18:30:31 0° 347° (NNW) 3,311 7.5 -18.4°
Reaches altitude 10° 18:32:54 10° 348° (NNW) 2,372 6.7 -18.8°
Maximum altitude 18:38:15 87° 261° (W) 799 4.0 -19.7°
Drops below altitude 10° 18:43:33 10° 171° (S) 2,356 6.4 -20.5°
Sets 18:45:55 0° 171° (S) 3,288 7.1 -20.9°
